Voltar ao catálogo

STARLINK-31580

AtivoComunicaçõesVLEO
NORAD 59434·PAYLOAD·🇺🇸 United States

Lançado Apr 7, 2024 de Vandenberg Space Force Base

Loading…

Próximas Passagens (próximas 24 horas)

TLE

AtualizadoSource: CelesTrak SupGP

Época: Sep 14, 2026, 22:33 UTC

1 59434C 24065P   26257.94006944 -.00041181  00000+0 -12168-2 0  2573
2 59434  53.1573 123.3666 0001373  92.6325 286.5003 15.34409344    11

Acompanhe STARLINK-31580 em tempo real com AllMySat

Download on the App Store